[[{"header":{"parameterUnit":"m.s-1","parameterCategory":1,"la1":30.2991,"la2":30.254,"lo1":-89.0895,"lo2":-89.0444,"dy":0.0017,"dx":0.0017,"nx":28,"ny":28,"refTime":"2025-05-25T09:00:00:Z","depth":0,"parameterNumber":2,"parameterNumberName":"U-component_of_WINDS"},"data":[0,0,0,0,0,0,0,0,0,0,0,0,0,0,0,0,0,0,0,0,0,0,0,0,0,0,0,0,0,0,0,0,0,0,0,0,0,0,0,0,0,0,0,0,0,0,0,0,0,0,0,0,0,0,0,0,0,0,-0.3134,-0.3134,0,-0.3112,-0.3112,-0.3112,-0.3086,-0.3086,-0.3085,-0.3085,-0.3062,-0.3062,-0.3062,0,0,0,0,0,0,0,0,0,0,0,0,0,-0.3152,-0.3152,-0.3134,-0.3134,-0.3133,-0.3112,-0.3112,-0.3112,-0.3086,-0.3086,-0.3085,-0.3085,-0.3062,-0.3062,-0.3062,0,0,0,0,0,0,0,0,0,0,0,0,0,-0.3139,-0.3152,-0.3134,-0.3118,-0.3116,-0.3112,-0.3112,-0.3112,-0.3086,-0.3086,-0.3085,-0.3085,-0.3062,-0.3062,-0.3062,-0.3071,0,0,-0.3061,-0.306,0,0,0,0,0,0,0,0,-0.314,-0.3138,-0.3121,-0.3119,-0.3117,-0.3101,-0.311,-0.3098,-0.3086,-0.3098,-0.3085,-0.3084,-0.3076,-0.3074,-0.3071,-0.307,-0.3069,-0.3061,-0.306,-0.306,-0.306,0,0,0,0,0,0,0,-0.3141,-0.3139,-0.3125,-0.312,-0.3118,-0.3112,-0.3109,-0.3108,-0.309,-0.3097,-0.3095,-0.3093,-0.3075,-0.3072,-0.3071,-0.3069,-0.3061,-0.306,-0.306,-0.306,-0.3074,-0.3075,0,0,0,0,0,0,-0.3144,-0.314,-0.3126,-0.3125,-0.3127,-0.3112,-0.3109,-0.3107,-0.309,-0.3087,-0.3093,-0.3092,-0.3073,-0.3071,-0.307,-0.3079,-0.306,-0.306,-0.306,-0.3073,-0.3074,-0.3075,0,0,0,0,0,0,-0.3144,-0.3143,-0.3127,-0.3132,-0.3129,-0.3112,-0.311,-0.3107,-0.3104,-0.3088,-0.3084,-0.3094,-0.3072,-0.307,-0.3071,-0.3078,-0.306,-0.3059,-0.3073,-0.3074,-0.3074,-0.3099,0,0,0,0,0,0,-0.3145,-0.3143,-0.3147,-0.3132,-0.3129,-0.3129,-0.3111,-0.3107,-0.3104,-0.3101,-0.3087,-0.3084,-0.3072,-0.3072,-0.3071,-0.3077,-0.3059,-0.3072,-0.3073,-0.3074,-0.3097,-0.3101,-0.3103,0,0,0,0,0,-0.3146,-0.3155,-0.3147,-0.3146,-0.3133,-0.3129,-0.3128,-0.3113,-0.3104,-0.3108,-0.3097,-0.3085,-0.3078,-0.3072,-0.3071,-0.3077,-0.3071,-0.3073,-0.3074,-0.3096,-0.31,-0.3103,0,0,0,0,0,0,-0.3171,-0.3152,-0.3144,-0.3148,-0.3141,-0.3125,-0.3129,-0.3118,-0.3112,-0.311,-0.3092,-0.3089,-0.3092,-0.3085,-0.3079,-0.3085,-0.3073,-0.3074,-0.309,-0.3094,-0.3096,-0.3098,-0.3059,0,0,0,0,0,-0.3177,-0.3175,-0.3159,-0.3165,-0.3161,-0.3146,-0.3143,-0.3133,-0.3124,-0.3121,-0.311,-0.3102,-0.3098,-0.3095,-0.3091,-0.3097,-0.3093,-0.31,-0.3103,-0.3106,-0.3107,-0.3109,-0.3112,-0.3079,-0.3079,-0.3079,0,0,-0.3189,-0.3179,-0.3179,-0.3169,-0.3162,-0.3161,-0.3143,-0.3142,-0.3141,-0.3121,-0.312,-0.3112,-0.3102,-0.3105,-0.3106,-0.3099,-0.3115,-0.3108,-0.311,-0.3109,-0.311,-0.3113,-0.3116,-0.308,-0.308,-0.308,0,0,-0.321,-0.3203,-0.3206,-0.32,-0.3189,-0.3178,-0.3179,-0.3165,-0.3159,-0.3159,-0.3144,-0.3142,-0.3135,-0.3128,-0.3124,-0.3143,-0.3131,-0.3142,-0.3157,-0.3159,-0.3161,-0.3163,-0.3169,-0.3172,-0.3143,-0.3143,-0.3143,0,-0.3227,-0.3224,-0.3209,-0.3209,-0.3205,-0.3187,-0.319,-0.3184,-0.3173,-0.317,-0.3163,-0.3154,-0.3146,-0.3147,-0.3151,-0.3149,-0.3149,-0.3143,-0.3162,-0.3164,-0.3166,-0.3171,-0.3174,-0.3144,-0.3144,-0.3144,-0.3144,0,-0.3245,-0.3243,-0.3247,-0.3236,-0.3233,-0.3235,-0.322,-0.3218,-0.3208,-0.3198,-0.3198,-0.3188,-0.318,-0.318,-0.317,-0.3179,-0.3175,-0.3166,-0.3152,-0.3171,-0.3175,-0.3178,-0.3146,-0.3146,-0.3145,-0.3145,0,0,-0.3281,-0.3262,-0.3263,-0.3258,-0.3245,-0.3243,-0.3244,-0.3237,-0.3236,-0.3229,-0.3228,-0.3223,-0.3214,-0.3209,-0.3198,-0.32,-0.3215,-0.319,-0.3189,-0.3194,-0.3224,-0.323,-0.3233,-0.3207,-0.3208,-0.3208,-0.3224,0,-0.3299,-0.3299,-0.3286,-0.329,-0.3288,-0.3271,-0.3271,-0.3263,-0.3254,-0.3251,-0.3241,-0.3237,-0.3226,-0.3222,-0.3224,-0.3213,-0.322,-0.3212,-0.3206,-0.3206,-0.3208,-0.3236,-0.3243,-0.3259,-0.3226,-0.3226,-0.3227,0,-0.332,-0.3314,-0.3318,-0.3305,-0.3303,-0.3304,-0.3296,-0.3294,-0.3284,-0.3277,-0.3272,-0.326,-0.3259,-0.3247,-0.3246,-0.324,-0.3237,-0.3232,-0.3232,-0.323,-0.3217,-0.3234,-0.3264,-0.3266,-0.323,-0.3229,-0.3229,0,-0.3345,-0.3338,-0.3339,-0.3335,-0.332,-0.3321,-0.3314,-0.3304,-0.3301,-0.3294,-0.3292,-0.3285,-0.3281,-0.3276,-0.3262,-0.3255,-0.3262,-0.3249,-0.3256,-0.3256,-0.3258,-0.3257,-0.3286,-0.3257,-0.3257,-0.3257,-0.3257,0,-0.3367,-0.3369,-0.335,-0.3351,-0.3353,-0.3338,-0.334,-0.3332,-0.3323,-0.3322,-0.3307,-0.3306,-0.3288,-0.3285,-0.3274,-0.3274,-0.3273,-0.3267,-0.3264,-0.3267,-0.3268,-0.3265,-0.3263,-0.3258,-0.3258,-0.3258,-0.3257,0,-0.3394,-0.3382,-0.3381,-0.3367,-0.3364,-0.3366,-0.3353,-0.3353,-0.3343,-0.3342,-0.334,-0.3325,-0.332,-0.3306,-0.3298,-0.3291,-0.3294,-0.3288,-0.3297,-0.3295,-0.3302,-0.3301,-0.3329,-0.3331,-0.3302,-0.3302,-0.3302,0,-0.3408,-0.341,-0.3396,-0.3394,-0.3388,-0.3385,-0.3382,-0.3367,-0.3364,-0.3353,-0.3354,-0.3348,-0.3342,-0.3335,-0.3323,-0.3317,-0.3311,-0.3321,-0.331,-0.3313,-0.331,-0.331,-0.3309,-0.3323,-0.3324,-0.3324,-0.3324,0,-0.3434,-0.3428,-0.3424,-0.3417,-0.3413,-0.3408,-0.3401,-0.34,-0.3383,-0.338,-0.3376,-0.3371,-0.3363,-0.3357,-0.3349,-0.3341,-0.333,-0.3328,-0.3329,-0.3333,-0.3337,-0.3334,-0.3303,-0.3327,-0.3327,-0.3327,-0.3327,-0.3326,-0.3455,-0.3455,-0.3446,-0.3441,-0.3435,-0.3429,-0.3427,-0.3418,-0.3414,-0.3406,-0.3397,-0.3393,-0.3383,-0.3371,-0.3365,-0.3361,-0.3355,-0.3356,-0.3357,-0.3357,-0.3359,-0.3339,-0.3359,-0.3359,-0.3359,-0.3359,-0.3359,0,-0.348,-0.3472,-0.3469,-0.346,-0.3456,-0.3446,-0.3438,-0.3436,-0.3432,-0.3424,-0.3419,-0.3413,-0.3408,-0.3395,-0.3388,-0.3387,-0.3382,-0.3386,-0.3385,-0.3384,-0.3365,-0.3364,-0.3391,-0.3391,-0.3391,-0.3391,-0.3391,-0.3391,-0.3492,-0.3492,-0.3485,-0.3481,-0.3474,-0.347,-0.3466,-0.346,-0.3454,-0.3448,-0.3443,-0.3435,-0.3425,-0.3417,-0.3411,-0.3408,-0.3406,-0.3411,-0.3406,-0.3388,-0.3385,-0.3382,-0.3382,-0.3411,-0.3411,-0.3425,-0.3425,-0.3425]},{"header":{"parameterUnit":"m.s-1","parameterCategory":1,"la1":30.2991,"la2":30.254,"lo1":-89.0895,"lo2":-89.0444,"dy":0.0017,"dx":0.0017,"nx":28,"ny":28,"refTime":"2025-05-25T09:00:00:Z","depth":0,"parameterNumber":3,"parameterNumberName":"V-component_of_WINDS"},"data":[0,0,0,0,0,0,0,0,0,0,0,0,0,0,0,0,0,0,0,0,0,0,0,0,0,0,0,0,0,0,0,0,0,0,0,0,0,0,0,0,0,0,0,0,0,0,0,0,0,0,0,0,0,0,0,0,0,0,2.0882,2.0882,0,2.0869,2.0869,2.0869,2.0879,2.088,2.088,2.088,2.0866,2.0865,2.0865,0,0,0,0,0,0,0,0,0,0,0,0,0,2.0913,2.0912,2.0882,2.0882,2.0881,2.0869,2.0869,2.0869,2.0879,2.088,2.088,2.0881,2.0866,2.0866,2.0865,0,0,0,0,0,0,0,0,0,0,0,0,0,2.09,2.0912,2.0882,2.0885,2.0885,2.0869,2.0869,2.0869,2.0879,2.088,2.088,2.0881,2.0867,2.0866,2.0864,2.0844,0,0,2.0861,2.086,0,0,0,0,0,0,0,0,2.09,2.0898,2.0885,2.0885,2.0885,2.0877,2.0875,2.0861,2.0879,2.0881,2.088,2.0881,2.0869,2.0868,2.0864,2.0844,2.0843,2.0861,2.086,2.086,2.0859,0,0,0,0,0,0,0,2.0901,2.0899,2.0877,2.0884,2.0885,2.0887,2.0886,2.0872,2.0872,2.0881,2.0882,2.088,2.0869,2.0865,2.0864,2.0843,2.0861,2.086,2.0859,2.0859,2.0806,2.0805,0,0,0,0,0,0,2.0902,2.09,2.0877,2.0876,2.0894,2.0886,2.0884,2.0879,2.0872,2.0871,2.088,2.0881,2.0867,2.0865,2.0863,2.0839,2.086,2.0859,2.0858,2.0806,2.0806,2.0805,0,0,0,0,0,0,2.0903,2.09,2.0878,2.0888,2.0886,2.0884,2.0878,2.0878,2.0874,2.0871,2.0871,2.0876,2.0867,2.0865,2.0849,2.0839,2.0858,2.0857,2.0807,2.0806,2.0805,2.0791,0,0,0,0,0,0,2.0903,2.09,2.0893,2.0888,2.0885,2.0864,2.0877,2.0877,2.0872,2.0873,2.0867,2.0867,2.0867,2.0851,2.0848,2.0838,2.0856,2.0808,2.0807,2.0805,2.0792,2.079,2.0787,0,0,0,0,0,2.0904,2.0889,2.0892,2.0889,2.0876,2.0864,2.0862,2.0864,2.0871,2.0864,2.0862,2.0867,2.0841,2.0849,2.0846,2.0835,2.0809,2.0807,2.0806,2.0794,2.079,2.0787,0,0,0,0,0,0,2.0892,2.0888,2.0892,2.0875,2.0869,2.0865,2.0856,2.086,2.0852,2.0854,2.0856,2.0854,2.0838,2.0835,2.0845,2.0815,2.0826,2.0824,2.0818,2.0815,2.0812,2.0813,2.0855,0,0,0,0,0,2.0887,2.0878,2.0875,2.086,2.0857,2.0857,2.0852,2.0854,2.0848,2.0846,2.0843,2.0837,2.0827,2.0821,2.0812,2.0792,2.0791,2.0783,2.0781,2.0779,2.0776,2.0766,2.0762,2.08,2.08,2.08,0,0,2.0877,2.0874,2.0868,2.0857,2.0853,2.0843,2.0855,2.0844,2.0836,2.0844,2.0829,2.0827,2.082,2.0802,2.0794,2.0799,2.0766,2.0777,2.0775,2.0774,2.0764,2.076,2.0757,2.0798,2.0799,2.0799,0,0,2.0853,2.085,2.0837,2.0833,2.0828,2.0828,2.0824,2.082,2.0819,2.0804,2.081,2.08,2.0784,2.0779,2.0774,2.0749,2.0754,2.0746,2.0733,2.0722,2.0719,2.0717,2.0708,2.0704,2.0744,2.0744,2.0744,0,2.0841,2.0827,2.083,2.0818,2.0813,2.0821,2.0807,2.0803,2.0794,2.0791,2.0797,2.0776,2.0773,2.0754,2.0748,2.0744,2.074,2.0747,2.072,2.0717,2.0715,2.0706,2.0703,2.0743,2.0743,2.0744,2.0744,0,2.0812,2.0802,2.0792,2.0784,2.0778,2.0766,2.0767,2.076,2.0763,2.0762,2.0747,2.0742,2.0733,2.0729,2.0731,2.071,2.0713,2.072,2.073,2.071,2.0702,2.0699,2.0742,2.0742,2.0743,2.0743,0,0,2.0779,2.0774,2.077,2.0767,2.0761,2.0753,2.0741,2.0732,2.0726,2.072,2.071,2.0696,2.0702,2.0697,2.0698,2.0689,2.067,2.0697,2.0696,2.0691,2.0646,2.0642,2.0638,2.0673,2.0672,2.0672,2.0647,0,2.0755,2.0735,2.0737,2.0717,2.0708,2.0715,2.0704,2.0699,2.0698,2.069,2.0689,2.0679,2.0687,2.0684,2.0676,2.0674,2.066,2.0676,2.0663,2.0662,2.0664,2.0634,2.0628,2.0605,2.0644,2.0643,2.0643,0,2.0724,2.0718,2.0697,2.0693,2.0689,2.068,2.0672,2.0664,2.0659,2.0659,2.0653,2.0656,2.0644,2.0655,2.0638,2.0648,2.0643,2.0641,2.064,2.0639,2.0651,2.0631,2.0598,2.0594,2.0638,2.0638,2.0639,0,2.0703,2.0688,2.0674,2.0671,2.0666,2.0659,2.0657,2.0652,2.0647,2.064,2.0636,2.0628,2.0623,2.0616,2.0617,2.0625,2.0599,2.061,2.0598,2.0598,2.0592,2.0593,2.0558,2.059,2.059,2.059,2.059,0,2.0675,2.0662,2.0664,2.0656,2.0641,2.0644,2.063,2.0628,2.0624,2.0615,2.062,2.0611,2.0613,2.0604,2.0605,2.059,2.0588,2.0587,2.0588,2.0587,2.0587,2.0583,2.0585,2.0589,2.0589,2.0589,2.0589,0,2.0648,2.0649,2.0634,2.0631,2.063,2.0619,2.0616,2.0608,2.0608,2.0596,2.0593,2.0593,2.0582,2.0583,2.0571,2.0571,2.0554,2.0556,2.0555,2.0556,2.0544,2.0545,2.0505,2.05,2.0535,2.0535,2.0535,0,2.0631,2.0621,2.0617,2.0611,2.0608,2.0599,2.0594,2.0596,2.059,2.0584,2.0576,2.0567,2.0559,2.0542,2.0541,2.0532,2.0534,2.052,2.0532,2.0532,2.0533,2.0534,2.0533,2.0518,2.0517,2.0517,2.0517,0,2.0599,2.06,2.0592,2.0585,2.0578,2.0572,2.0567,2.0562,2.0564,2.0557,2.0547,2.0541,2.053,2.052,2.0511,2.0509,2.0513,2.0513,2.051,2.0509,2.0509,2.0509,2.0549,2.0514,2.0514,2.0515,2.0515,2.0515,2.0576,2.0568,2.0564,2.0555,2.0551,2.0546,2.0538,2.0537,2.0529,2.052,2.0522,2.051,2.0505,2.0495,2.0491,2.0482,2.0486,2.0482,2.0481,2.0479,2.0478,2.0511,2.048,2.048,2.048,2.0481,2.0481,0,2.0545,2.0543,2.0535,2.0527,2.052,2.0525,2.052,2.0513,2.0503,2.0499,2.0491,2.048,2.0471,2.0468,2.0459,2.0452,2.0454,2.045,2.045,2.045,2.0474,2.0478,2.0449,2.0449,2.0449,2.0449,2.0449,2.0449,2.0528,2.0514,2.0514,2.0499,2.0497,2.0486,2.0482,2.0477,2.0474,2.0461,2.0453,2.0452,2.0448,2.0439,2.0431,2.043,2.0427,2.0421,2.0422,2.0445,2.0448,2.0451,2.0454,2.0421,2.0421,2.0398,2.0398,2.0397]}]]